Retour au catalogue

SL-8 DEB *

ActifLEO
NORAD 14810·DEBRIS·🇷🇺 Russia

Lancé Aug 28, 1981 depuis Plesetsk Cosmodrome

Loading…

Prochains Passages (prochaines 24 heures)

TLE

FraisSource: Space-Track

Époque: Sep 14, 2026, 04:34 UTC

1 14810U 81084D   26257.19031419  .00001077  00000-0  25649-3 0  9999
2 14810  73.9492  55.6091 0015459 176.5374 357.8440 14.54993263282989

Suivez SL-8 DEB * en temps réel avec AllMySat

Download on the App Store